Weather History for Ludington, MI

Change the Weather History Date:

Tuesday, June 18, 2013

  Actual Average Record
Temperature  
Mean Temperature 65 °F -  
Max Temperature 75 °F 75 °F 92 °F (1987)
Min Temperature 55 °F 52 °F 37 °F (1958)
Growing Degree Days 15 (Base 50)    
Moisture  
Dew Point 48 °F    
Average Humidity 62    
Maximum Humidity 88    
Minimum Humidity 29    
Precipitation  
Precipitation 0.00 in - - ()
Sea Level Pressure  
Sea Level Pressure 30.05 in    
Wind  
Wind Speed 7 mph (NNE)    
Max Wind Speed 17 mph    
Max Gust Speed 24 mph    
Visibility 10 miles    
Events      
Averages and records for this station are not official NWS values.
T = Trace of Precipitation, MM = Missing Value Source: NWS Daily Summary

Daily Weather History Graph

Daily Weather History Graph

Search for Another Location

Airport:

Trip Planner

Search our weather history database for the weather conditions in past years. The results will help you decide how hot, cold, wet, or windy it might be!

Date:

Astronomy

Jun. 18, 2013 Rise Set
Actual Time 6:02 AM EDT 9:31 PM EDT
Civil Twilight 5:26 AM EDT 10:07 PM EDT
Nautical Twilight 4:38 AM EDT 10:55 PM EDT
Astronomical Twilight 3:37 AM EDT 11:56 PM EDT
Moon 4:07 PM EDT (6/18) 2:19 AM EDT (6/18)
Length of Visible Light 16h 41m
Length of Day
15h 28m
Waxing Gibbous, 70% of the Moon is Illuminated
Jun 18
Waxing Gibbous
Jun 23
Full
Jun 30
Last Quarter
Jul 8
New
Jul 15
First Quarter

Hourly Weather History & Observations

Time (EDT) Temp. Dew Point Humidity Pressure Visibility Wind Dir Wind Speed Gust Speed Precip Events Conditions
12:18 AM 57.2 °F 51.8 °F 82% 29.98 in 10.0 mi North 6.9 mph - N/A   Clear
12:36 AM 57.2 °F 53.6 °F 88% 29.99 in 10.0 mi North 4.6 mph - N/A   Clear
12:56 AM 55.4 °F 51.8 °F 88% 29.99 in 10.0 mi NNE 3.5 mph - N/A   Clear
1:18 AM 55.4 °F 51.8 °F 88% 29.98 in 10.0 mi North 5.8 mph - N/A   Clear
1:36 AM 55.4 °F 51.8 °F 88% 29.97 in 10.0 mi North 6.9 mph - N/A   Clear
1:57 AM 55.4 °F 51.8 °F 88% 29.97 in 10.0 mi North 4.6 mph - N/A   Clear
2:16 AM 55.4 °F 51.8 °F 88% 29.97 in 10.0 mi North 4.6 mph - N/A   Clear
2:37 AM 55.4 °F 51.8 °F 88% 29.98 in 10.0 mi NNE 3.5 mph - N/A   Clear
2:56 AM 55.4 °F 51.8 °F 88% 29.99 in 10.0 mi NNE 3.5 mph - N/A   Mostly Cloudy
3:16 AM 55.4 °F 51.8 °F 88% 29.99 in 10.0 mi Calm Calm - N/A   Overcast
3:37 AM 55.4 °F 51.8 °F 88% 29.99 in 10.0 mi Calm Calm - N/A   Mostly Cloudy
3:57 AM 55.4 °F 51.8 °F 88% 29.99 in 10.0 mi North 3.5 mph - N/A   Mostly Cloudy
4:16 AM 55.4 °F 51.8 °F 88% 30.00 in 10.0 mi North 3.5 mph - N/A   Overcast
4:38 AM 55.4 °F 51.8 °F 88% 30.00 in 10.0 mi NNE 4.6 mph - N/A   Mostly Cloudy
4:57 AM 55.4 °F 51.8 °F 88% 30.01 in 10.0 mi NNE 3.5 mph - N/A   Overcast
5:17 AM 55.4 °F 51.8 °F 88% 30.02 in 10.0 mi NNE 3.5 mph - N/A   Mostly Cloudy
5:38 AM 55.4 °F 51.8 °F 88% 30.02 in 10.0 mi NNE 3.5 mph - N/A   Scattered Clouds
5:58 AM 55.4 °F 51.8 °F 88% 30.02 in 10.0 mi NNE 3.5 mph - N/A   Clear
6:19 AM 55.4 °F 51.8 °F 88% 30.02 in 10.0 mi NNE 3.5 mph - N/A   Clear
6:36 AM 55.4 °F 51.8 °F 88% 30.03 in 10.0 mi NNE 3.5 mph - N/A   Clear
6:59 AM 55.4 °F 51.8 °F 88% 30.04 in 10.0 mi NNE 3.5 mph - N/A   Clear
7:16 AM 55.4 °F 51.8 °F 88% 30.05 in 10.0 mi NE 4.6 mph - N/A   Clear
7:36 AM 57.2 °F 51.8 °F 82% 30.05 in 10.0 mi NE 3.5 mph - N/A   Clear
7:58 AM 57.2 °F 50.0 °F 77% 30.06 in 10.0 mi ENE 8.1 mph - N/A   Clear
8:19 AM 60.8 °F 51.8 °F 72% 30.06 in 10.0 mi ENE 8.1 mph - N/A   Clear
8:37 AM 60.8 °F 50.0 °F 68% 30.07 in 10.0 mi ENE 8.1 mph - N/A   Clear
8:56 AM 60.8 °F 50.0 °F 68% 30.07 in 10.0 mi East 11.5 mph - N/A   Clear
9:17 AM 60.8 °F 50.0 °F 68% 30.07 in 10.0 mi East 12.7 mph 16.1 mph N/A   Clear
9:36 AM 62.6 °F 50.0 °F 63% 30.07 in 10.0 mi ENE 10.4 mph - N/A   Clear
9:58 AM 62.6 °F 48.2 °F 59% 30.08 in 10.0 mi ENE 11.5 mph - N/A   Clear
10:17 AM 62.6 °F 48.2 °F 59% 30.08 in 10.0 mi ENE 11.5 mph 17.3 mph N/A   Clear
10:38 AM 64.4 °F 48.2 °F 56% 30.09 in 10.0 mi East 9.2 mph - N/A   Clear
10:57 AM 66.2 °F 46.4 °F 49% 30.08 in 10.0 mi East 11.5 mph 17.3 mph N/A   Clear
11:17 AM 68.0 °F 46.4 °F 46% 30.08 in 10.0 mi East 12.7 mph 18.4 mph N/A   Clear
11:37 AM 69.8 °F 46.4 °F 43% 30.08 in 10.0 mi ENE 11.5 mph 18.4 mph N/A   Clear
11:56 AM 69.8 °F 44.6 °F 40% 30.08 in 10.0 mi ENE 9.2 mph 17.3 mph N/A   Clear
12:16 PM 69.8 °F 44.6 °F 40% 30.08 in 10.0 mi East 10.4 mph 16.1 mph N/A   Clear
12:38 PM 69.8 °F 42.8 °F 38% 30.08 in 10.0 mi ENE 9.2 mph 16.1 mph N/A   Clear
12:58 PM 69.8 °F 42.8 °F 38% 30.07 in 10.0 mi East 10.4 mph - N/A   Clear
1:18 PM 69.8 °F 41.0 °F 35% 30.07 in 10.0 mi ENE 11.5 mph 17.3 mph N/A   Clear
1:39 PM 69.8 °F 41.0 °F 35% 30.07 in 10.0 mi NE 4.6 mph - N/A   Clear
1:59 PM 73.4 °F 41.0 °F 31% 30.07 in 10.0 mi East 11.5 mph - N/A   Clear
2:17 PM 73.4 °F 41.0 °F 31% 30.06 in 10.0 mi NNE 8.1 mph - N/A   Clear
2:38 PM 75.2 °F 41.0 °F 29% 30.07 in 10.0 mi ENE 10.4 mph - N/A   Clear
2:59 PM 71.6 °F 46.4 °F 41% 30.07 in 10.0 mi NNW 9.2 mph - N/A   Clear
3:19 PM 69.8 °F 48.2 °F 46% 30.07 in 10.0 mi NNW 13.8 mph 19.6 mph N/A   Clear
3:37 PM 69.8 °F 48.2 °F 46% 30.07 in 10.0 mi NNW 13.8 mph - N/A   Clear
3:58 PM 69.8 °F 48.2 °F 46% 30.07 in 10.0 mi NNW 12.7 mph 20.7 mph N/A   Clear
4:19 PM 69.8 °F 48.2 °F 46% 30.07 in 10.0 mi NNW 13.8 mph 20.7 mph N/A   Clear
4:38 PM 69.8 °F 50.0 °F 49% 30.07 in 10.0 mi NNW 17.3 mph 24.2 mph N/A   Clear
4:57 PM 69.8 °F 50.0 °F 49% 30.07 in 10.0 mi North 11.5 mph 18.4 mph N/A   Clear
5:17 PM 69.8 °F 48.2 °F 46% 30.08 in 10.0 mi NNW 15.0 mph 19.6 mph N/A   Clear
5:37 PM 69.8 °F 48.2 °F 46% 30.07 in 10.0 mi North 11.5 mph 20.7 mph N/A   Clear
5:57 PM 69.8 °F 48.2 °F 46% 30.07 in 10.0 mi North 11.5 mph 21.9 mph N/A   Clear
6:19 PM 68.0 °F 46.4 °F 46% 30.07 in 10.0 mi North 17.3 mph - N/A   Clear
6:39 PM 68.0 °F 46.4 °F 46% 30.07 in 10.0 mi North 13.8 mph 17.3 mph N/A   Clear
6:57 PM 68.0 °F 46.4 °F 46% 30.06 in 10.0 mi North 15.0 mph - N/A   Clear
7:18 PM 68.0 °F 44.6 °F 43% 30.07 in 10.0 mi North 11.5 mph - N/A   Clear
7:41 PM 66.2 °F 42.8 °F 43% 30.07 in 10.0 mi North 10.4 mph - N/A   Clear
8:00 PM 64.4 °F 42.8 °F 45% 30.07 in 10.0 mi North 9.2 mph - N/A   Clear
8:19 PM 64.4 °F 42.8 °F 45% 30.07 in 10.0 mi North 8.1 mph - N/A   Clear
8:38 PM 62.6 °F 42.8 °F 48% 30.07 in 10.0 mi North 6.9 mph - N/A   Clear
9:00 PM 62.6 °F 42.8 °F 48% 30.07 in 10.0 mi North 4.6 mph - N/A   Clear
9:19 PM 60.8 °F 42.8 °F 52% 30.07 in 10.0 mi North 4.6 mph - N/A   Clear
9:40 PM 60.8 °F 42.8 °F 52% 30.07 in 10.0 mi NNE 4.6 mph - N/A   Clear
9:59 PM 60.8 °F 42.8 °F 52% 30.07 in 10.0 mi NNE 3.5 mph - N/A   Clear
10:19 PM 59.0 °F 42.8 °F 55% 30.08 in 10.0 mi NNE 3.5 mph - N/A   Clear
10:39 PM 57.2 °F 44.6 °F 63% 30.09 in 10.0 mi NNE 3.5 mph - N/A   Clear
10:57 PM 57.2 °F 44.6 °F 63% 30.09 in 10.0 mi NE 3.5 mph - N/A   Clear
11:17 PM 57.2 °F 44.6 °F 63% 30.10 in 10.0 mi NNE 3.5 mph - N/A   Clear
11:38 PM 55.4 °F 42.8 °F 63% 30.10 in 10.0 mi NE 4.6 mph - N/A   Clear
11:59 PM 55.4 °F 44.6 °F 67% 30.10 in 10.0 mi Calm Calm - N/A   Clear